DateTimeUTC,F1_A11,F1_S11,BsB_S11,BsG_S11,BsR_S11,BbsB_S11,BbsG_S11,BbsR_S11,BaB_A11,BaG_A11,BaR_A11,Tu_S11,T_S11,Uu_S11,U_S11,P_S11,T1_A11
2021-07-31T12:00:00Z,00000200,20000000,,,,,,,-000.33,-000.23,-000.18,19.9,26.3,11.4,07.8,0679.9,31.2
2021-07-31T12:01:00Z,00000200,20000000,,,,,,,0000.17,-000.22,0000.03,19.9,26.3,11.3,07.7,0679.9,31.2
2021-07-31T12:02:00Z,00000200,20000000,,,,,,,-000.11,-000.01,-000.05,19.9,26.3,11.2,07.6,0679.9,31.2
2021-07-31T12:03:00Z,00000200,60000000,,,,,,,0001.62,0001.49,0001.22,19.9,26.3,11.2,07.6,0679.9,31.2
2021-07-31T12:04:00Z,00000200,40000000,0006.93,0004.73,0002.76,0000.51,0000.59,0000.61,0002.02,0001.85,0001.23,20.1,26.2,11.3,07.8,0680.8,31.2
2021-07-31T12:05:00Z,00000200,00000000,0006.91,0004.45,0002.57,0000.87,0000.70,0000.90,0001.81,0001.86,0001.24,20.2,26.2,11.3,07.8,0680.9,31.1
2021-07-31T12:06:00Z,00000200,00000000,0007.26,0005.13,0003.05,0000.94,0000.62,0000.39,0001.82,0001.95,0001.50,20.2,26.2,11.3,07.9,0680.9,31.1
2021-07-31T12:07:00Z,00000200,00000000,0007.17,0004.98,0002.98,0001.58,0000.59,0000.73,0001.85,0001.37,0001.13,20.2,26.2,11.3,07.9,0680.9,31.2
2021-07-31T12:08:00Z,00000200,00000000,0007.65,0005.21,0002.77,0001.09,0000.91,0000.82,0002.00,0001.71,0001.37,20.3,26.2,11.3,07.9,0680.9,31.2
2021-07-31T12:09:00Z,00000200,00000000,0007.15,0004.96,0002.72,0001.07,0000.65,0000.46,0001.95,0002.06,0001.65,20.3,26.2,11.4,07.9,0680.9,31.2
2021-07-31T12:10:00Z,00000200,00000000,0007.61,0005.54,0003.41,0000.77,0000.65,0000.76,0002.50,0002.06,0001.15,20.3,26.3,11.4,07.9,0680.9,31.2
2021-07-31T12:11:00Z,00000200,00000000,0007.67,0005.05,0003.15,0000.77,0000.45,0000.71,0001.97,0001.93,0001.58,20.3,26.3,11.4,08.0,0680.9,31.2
2021-07-31T12:12:00Z,00000200,00000000,0005.77,0004.30,0002.55,0000.95,0000.74,0000.73,0001.64,0001.05,0001.33,20.3,26.3,11.4,07.9,0680.9,31.2
2021-07-31T12:13:00Z,00000200,00000000,0006.67,0004.63,0002.67,0000.33,0000.82,0000.22,0001.70,0001.95,0001.14,20.3,26.3,11.4,07.9,0680.9,31.2
2021-07-31T12:14:00Z,00000200,00000000,0007.51,0004.88,0002.50,0001.32,0000.58,0000.33,0002.12,0001.71,0001.23,20.4,26.3,11.3,07.9,0680.9,31.2
2021-07-31T12:15:00Z,00000200,00000000,0006.51,0004.55,0002.33,0000.61,0000.59,0000.78,0002.05,0001.51,0001.33,20.4,26.3,11.4,07.9,0680.9,31.2
2021-07-31T12:16:00Z,00000200,00000000,0007.29,0005.04,0002.26,0000.69,0000.55,0000.67,0001.77,0001.98,0001.29,20.4,26.3,11.4,08.0,0680.9,31.2
2021-07-31T12:17:00Z,00000200,00000000,0007.18,0004.04,0002.44,0001.20,0000.55,0000.31,0001.65,0001.63,0001.26,20.4,26.3,11.5,08.0,0680.9,31.2
2021-07-31T12:18:00Z,00000200,00000000,0006.19,0004.48,0002.14,0001.19,0000.47,0000.83,0001.78,0001.48,0001.05,20.4,26.3,11.4,07.9,0680.9,31.2
2021-07-31T12:19:00Z,00000200,00000000,0006.16,0003.91,0002.04,0000.41,0000.64,0000.01,0001.54,0001.31,0001.15,20.4,26.4,11.3,07.9,0680.8,31.2
2021-07-31T12:20:00Z,00000200,00000000,0005.96,0003.43,0002.11,0000.66,0000.61,0000.38,0001.68,0001.50,0000.97,20.4,26.4,11.4,08.0,0680.8,31.2
2021-07-31T12:21:00Z,00000200,00000000,0006.02,0004.69,0002.22,0000.95,0000.37,0000.25,0002.08,0002.07,0001.48,20.5,26.4,11.3,07.9,0680.9,31.2
2021-07-31T12:22:00Z,00000200,00000000,0005.74,0004.08,0002.49,0000.54,0000.63,0000.29,0001.41,0001.35,0001.01,20.5,26.4,11.4,08.0,0680.8,31.2
2021-07-31T12:23:00Z,00000200,00000000,0005.99,0003.73,0002.00,0000.58,0000.77,0000.45,0001.45,0001.13,0001.22,20.5,26.4,11.3,07.9,0680.8,31.2
2021-07-31T12:24:00Z,00000200,00000000,0006.95,0004.11,0002.32,0000.89,0000.68,0000.43,0001.84,0001.96,0001.08,20.5,26.4,11.3,07.9,0680.8,31.2
2021-07-31T12:25:00Z,00000200,00000000,0006.12,0003.74,0002.07,0000.14,0000.87,0000.38,0001.74,0001.40,0001.28,20.5,26.4,11.2,07.8,0680.8,31.2
2021-07-31T12:26:00Z,00000200,00000000,0005.61,0003.83,0002.23,0001.10,0000.61,0000.53,0001.72,0001.62,0000.67,20.6,26.5,11.2,07.9,0680.8,31.2
2021-07-31T12:27:00Z,00000200,00000000,0005.54,0003.57,0002.17,0001.00,0000.34,0000.59,0001.74,0001.43,0001.37,20.6,26.5,11.2,07.8,0680.8,31.2
2021-07-31T12:28:00Z,00000200,00000000,0006.67,0003.92,0002.57,0000.77,0000.42,0000.53,0001.47,0001.43,0001.05,20.6,26.5,11.2,07.8,0680.8,31.2
2021-07-31T12:29:00Z,00000200,00000000,0005.62,0004.26,0002.55,0001.47,0000.51,0000.73,0001.63,0001.45,0001.09,20.6,26.5,11.2,07.9,0680.8,31.2
2021-07-31T12:30:00Z,00000200,00000000,0007.46,0004.26,0002.67,0000.69,0000.21,0000.38,0001.98,0001.82,0001.20,20.6,26.5,11.2,07.9,0680.8,31.2
2021-07-31T12:31:00Z,00000200,00000000,0006.53,0003.82,0002.34,0000.71,0000.34,0000.43,0001.67,0001.37,0001.25,20.6,26.5,11.2,07.8,0680.8,31.2
2021-07-31T12:32:00Z,00000200,00000000,0006.78,0004.73,0002.41,0000.28,0000.62,0000.54,0001.78,0001.66,0001.00,20.6,26.5,11.1,07.8,0680.8,31.2
2021-07-31T12:33:00Z,00000200,00000000,0004.86,0003.94,0002.43,0000.50,0000.39,0000.36,0003.18,0003.25,0002.81,20.6,26.5,11.1,07.8,0680.8,31.2
2021-07-31T12:34:00Z,00000200,00000000,0006.01,0004.27,0002.37,0001.19,0000.60,0000.40,0001.89,0001.40,0001.23,20.6,26.5,11.2,07.8,0680.9,31.2
2021-07-31T12:35:00Z,00000200,00000000,0006.97,0004.55,0002.72,0000.70,0000.71,0000.33,0002.09,0001.75,0001.38,20.6,26.5,11.1,07.8,0680.8,31.2
2021-07-31T12:36:00Z,00000200,00000000,0007.36,0004.99,0002.82,0000.80,0000.71,0000.54,0001.51,0001.98,0001.66,20.5,26.5,11.2,07.8,0680.9,31.2
2021-07-31T12:37:00Z,00000200,00000000,0007.80,0004.96,0003.17,0000.85,0000.76,0000.70,0002.47,0001.75,0001.35,20.5,26.5,11.2,07.8,0680.9,31.2
2021-07-31T12:38:00Z,00000200,00000000,0008.33,0005.77,0003.94,0001.73,0000.78,0000.86,0001.88,0001.60,0001.18,20.5,26.5,11.2,07.8,0680.9,31.3
2021-07-31T12:39:00Z,00000200,00000000,0007.24,0004.92,0003.22,0000.60,0000.64,0000.73,0002.15,0002.11,0001.41,20.6,26.5,11.2,07.8,0680.9,31.3
2021-07-31T12:40:00Z,00000200,00000000,0006.37,0004.29,0002.69,0001.03,0000.53,0000.51,0001.53,0001.40,0000.89,20.6,26.5,11.0,07.7,0680.9,31.3
2021-07-31T12:41:00Z,00000200,00000000,0007.11,0004.68,0002.67,0001.12,0000.52,0000.20,0001.82,0001.55,0001.27,20.6,26.5,11.1,07.8,0680.9,31.3
2021-07-31T12:42:00Z,00000200,00000000,0006.40,0004.18,0002.48,0000.57,0000.52,0000.51,0001.75,0001.30,0001.37,20.6,26.5,11.1,07.7,0680.9,31.3
2021-07-31T12:43:00Z,00000200,00000000,0006.15,0004.23,0002.37,0000.30,0000.60,0000.43,0001.71,0001.64,0001.03,20.6,26.6,11.1,07.8,0680.9,31.3
2021-07-31T12:44:00Z,00000200,00000000,0006.86,0004.26,0002.34,0000.17,0000.59,0000.64,0001.61,0001.97,0001.08,20.6,26.6,11.1,07.7,0680.9,31.3
2021-07-31T12:45:00Z,00000200,00000000,0006.30,0003.90,0002.42,0001.07,0000.62,0000.36,0001.69,0001.18,0001.11,20.6,26.6,11.1,07.8,0680.9,31.3
2021-07-31T12:46:00Z,00000200,00000000,0005.98,0004.07,0002.16,0000.77,0000.64,0000.34,0001.60,0001.49,0000.97,20.6,26.6,11.2,07.8,0681.0,31.3
2021-07-31T12:47:00Z,00000200,00000000,0005.80,0004.08,0002.48,0000.50,0000.47,0000.40,0002.01,0001.52,0001.35,20.7,26.6,11.1,07.8,0681.0,31.3
2021-07-31T12:48:00Z,00000200,00000000,0006.34,0004.78,0002.36,0001.08,0000.72,0000.49,0001.54,0002.10,0001.33,20.7,26.6,11.1,07.8,0680.9,31.3
2021-07-31T12:49:00Z,00000200,00000000,0007.81,0004.86,0002.94,0001.01,0000.80,0000.54,0001.81,0001.35,0001.35,20.7,26.6,11.2,07.8,0680.9,31.3
2021-07-31T12:50:00Z,00000200,00000000,0005.99,0003.93,0002.11,0000.44,0000.79,0000.38,0001.88,0001.39,0001.02,20.7,26.6,11.2,07.8,0680.9,31.3
2021-07-31T12:51:00Z,00000200,00000000,0006.95,0004.13,0002.30,0000.82,0000.37,0000.57,0001.32,0001.74,0001.14,20.7,26.7,11.1,07.8,0680.9,31.4
2021-07-31T12:52:00Z,00000200,00000000,0006.71,0004.42,0002.66,0000.91,0000.94,0000.39,0001.97,0001.71,0001.44,20.7,26.7,11.1,07.7,0680.9,31.4
2021-07-31T12:53:00Z,00000200,00000000,0005.74,0003.94,0001.96,0000.77,0000.43,0000.42,0001.50,0001.57,0000.89,20.7,26.7,11.1,07.8,0680.9,31.4
2021-07-31T12:54:00Z,00000200,00000000,0006.57,0004.43,0002.50,0000.26,0000.47,0000.49,0001.77,0001.41,0001.51,20.7,26.7,11.2,07.8,0680.9,31.4
2021-07-31T12:55:00Z,00000200,00000000,0006.24,0003.94,0002.19,0001.00,0000.39,0000.31,0001.67,0001.55,0000.89,20.7,26.7,11.2,07.8,0680.9,31.4
2021-07-31T12:56:00Z,00000200,00000000,0006.76,0004.80,0002.58,0000.71,0000.47,0000.32,0002.16,0001.67,0001.56,20.8,26.7,11.1,07.8,0680.8,31.4
2021-07-31T12:57:00Z,00000200,40000000,,,,,,,0000.30,0000.39,0000.19,20.8,26.8,11.2,07.8,0680.8,31.4
2021-07-31T12:58:00Z,00000200,60000000,,,,,,,-000.28,-000.14,-000.15,20.6,26.9,11.1,07.6,0679.9,31.4
2021-07-31T12:59:00Z,00000200,20000000,,,,,,,0000.03,0000.02,0000.11,20.6,27.0,11.2,07.6,0679.9,31.4
